Location: Olda
(45.8833°N, 9.5500°E)
Time: 20:53:25
(UTC+00:00)

Cosmos 1844 - Pass Details

Date: 03 March 2021
Orbit: 822 x 868 km, 70.9° (Epoch: 13 April)

Event Time Altitude Azimuth Distance (km) Brightness Sun altitude
Rises 18:34:12 0° 334° (NNW) 3,459 7.4 -15.2°
Reaches altitude 10° 18:36:42 10° 337° (NNW) 2,515 6.6 -15.6°
Maximum altitude 18:42:29 72° 62° (ENE) 906 3.7 -16.6°
Enters shadow 18:47:05 16° 145° (SE) 2,073 5.3 -17.4°
